Wind_Speed
6 5 5 5 3 4 5 6 5 6 6 5 4 4 3 3 1 1 0 2 4 6 7 8 8 9 11 12 14 15 16 16 17 17 16 15 12 10 7 5 4 3 2 1 1 1 1 2 3
5 4 5 5 4 6 5 5 5 5 5 5 4 4 4 3 2 2 1 2 3 4 6 6 7 8 9 10 11 13 14 15 16 16 16 15 14 12 9 7 5 4 3 2 1 1 1 2 3
4 4 5 5 6 6 5 4 4 5 5 5 5 4 4 3 2 1 2 3 3 3 4 5 6 6 7 8 9 10 12 13 14 14 15 15 15 13 12 10 7 5 4 3 2 2 2 3 4
4 4 5 6 6 5 4 4 4 4 4 5 5 5 4 4 3 1 2 3 4 3 3 4 4 5 5 6 6 7 9 10 11 12 12 13 13 13 12 11 10 8 6 4 3 3 2 3 4
4 3 5 6 5 4 4 3 3 2 3 4 4 4 4 4 3 2 2 3 5 5 4 3 3 4 4 5 5 5 6 7 8 9 10 11 11 12 12 12 11 10 8 7 5 4 3 3 3
4 4 4 3 2 3 3 2 1 1 2 3 4 3 3 3 3 2 2 3 5 6 5 4 3 2 3 3 3 4 4 5 6 6 7 8 9 10 11 12 12 11 10 8 6 4 3 3 1
5 4 4 2 3 2 1 0 1 1 1 2 3 3 2 3 2 2 1 3 5 6 7 6 5 3 2 1 1 1 2 3 3 4 4 5 6 7 8 10 11 11 10 9 7 5 3 2 1
7 6 6 5 5 4 3 3 3 3 3 3 4 3 2 2 2 2 2 2 4 6 7 7 7 6 5 4 3 2 1 1 2 2 3 3 4 5 6 7 8 9 9 9 7 5 3 2 1
9 8 7 7 9 8 7 7 7 7 7 7 6 5 4 4 3 3 3 3 3 4 6 7 8 8 8 8 7 6 6 5 4 4 3 3 3 4 5 6 6 7 7 8 7 6 4 3 2
12 11 10 12 14 12 11 11 10 10 11 10 10 8 7 7 6 6 6 5 5 5 5 6 8 9 10 11 11 10 10 9 8 8 7 6 5 5 6 6 6 6 6 6 6 6 5 4 2
15 15 14 16 17 16 16 16 15 15 14 13 13 12 11 10 10 9 9 8 8 7 7 7 8 9 10 11 12 12 12 12 11 11 10 9 8 8 8 7 7 6 6 6 5 5 5 4 4
17 18 19 19 19 19 20 20 20 18 17 17 17 16 15 14 13 13 12 11 11 11 11 10 10 10 11 12 13 13 14 14 14 14 13 12 12 11 11 10 9 9 8 7 7 6 6 5 4
19 21 21 21 21 22 23 24 24 22 21 20 20 20 20 19 17 16 16 15 14 13 13 13 13 12 13 14 14 15 16 16 16 16 16 16 16 15 14 13 12 11 11 10 9 8 8 7 6
20 21 22 23 25 26 27 27 27 26 25 24 24 24 24 23 21 20 19 19 18 16 16 16 16 16 16 16 16 17 18 18 18 19 19 19 19 18 17 16 15 14 14 13 12 11 10 9 9
22 23 25 26 27 29 30 31 31 31 29 28 28 28 27 26 25 24 23 22 21 20 20 19 19 19 19 18 19 19 20 20 20 21 21 21 21 21 20 19 18 17 16 16 15 14 13 12 12
25 26 27 28 30 32 33 35 36 34 33 32 32 31 30 30 29 28 27 25 25 24 24 22 22 22 22 22 22 21 21 21 22 22 23 23 23 23 22 21 20 20 19 18 17 17 16 16 15
26 28 28 29 31 33 34 35 37 37 37 36 35 35 35 34 34 32 30 29 29 28 28 27 25 25 25 24 25 24 24 23 23 23 23 24 25 25 24 23 23 22 21 21 21 20 20 19 19
27 29 31 31 33 34 35 36 38 40 40 40 39 39 39 39 38 36 34 34 33 33 32 32 30 29 29 28 28 27 27 26 25 24 24 25 26 26 25 25 25 25 24 24 23 23 23 22 22
29 31 33 34 36 38 40 40 41 42 43 43 43 42 42 42 42 40 38 38 37 37 36 36 35 33 32 32 31 31 31 30 28 26 25 26 26 26 26 27 27 26 27 26 26 26 25 24 24
31 33 35 37 40 42 43 44 46 45 44 45 44 44 44 43 42 41 40 39 39 38 38 37 37 36 35 35 35 35 35 33 32 30 28 28 28 28 27 29 29 29 29 29 27 26 25 24 23
29 33 36 38 40 42 44 44 43 42 42 45 44 44 43 41 40 39 38 37 36 37 36 36 36 36 36 36 36 37 37 36 34 33 31 30 30 30 30 31 32 32 31 31 30 28 26 24 24
28 31 34 36 38 40 39 39 34 34 38 39 39 40 40 38 37 35 34 33 33 33 33 34 34 35 36 37 38 38 39 38 36 36 35 34 33 33 33 32 32 33 32 32 32 30 28 27 26
29 31 33 34 35 34 32 32 31 32 37 38 36 34 33 33 33 32 31 30 30 30 31 32 33 34 36 37 37 38 38 39 38 38 38 37 36 36 36 35 34 34 33 32 32 31 29 27 26
30 30 31 30 28 24 22 23 29 33 37 38 35 32 30 30 30 31 31 31 31 31 31 32 33 34 36 37 38 38 39 40 40 41 40 39 38 37 37 36 36 35 34 32 31 31 30 29 27
28 28 28 24 18 17 17 20 28 32 35 38 39 39 35 33 33 32 32 32 33 33 33 34 35 36 37 38 39 39 39 40 41 42 42 40 40 39 37 37 36 36 35 33 33 32 31 29 27
25 26 24 21 14 11 14 18 22 27 31 34 36 38 36 35 34 33 33 33 34 34 34 35 36 37 38 38 38 38 38 39 40 40 41 40 40 40 39 39 38 36 35 34 34 33 30 29 28
24 22 20 17 13 8 11 14 16 17 21 26 29 30 31 31 30 31 31 32 32 33 33 34 35 36 36 36 35 36 36 37 38 38 39 39 39 39 39 37 35 34 35 35 34 31 28 28 27
24 21 17 15 13 9 8 11 14 16 16 17 18 20 22 23 23 25 26 27 28 29 30 31 32 32 31 31 31 31 32 33 35 35 34 36 36 36 36 36 34 34 34 34 30 25 24 25 25
22 20 17 15 14 11 10 11 13 13 13 12 11 13 15 15 16 17 18 19 21 22 23 23 23 24 24 24 25 26 26 27 29 29 30 30 31 32 33 33 31 29 27 24 22 21 21 22 22
21 20 18 16 14 13 12 12 12 12 11 9 5 4 6 7 9 9 8 9 11 12 12 14 14 14 15 15 16 17 18 20 21 23 23 24 24 23 23 21 20 19 18 17 17 18 20 21 21
Wind_Direction
110 123 127 128 137 124 82 65 48 31 19 10 359 350 350 5 337 229 227 139 110 100 97 100 100 96 90 83 75 70 65 62 60 57 54 51 51 53 57 56 54 51 49 43 9 289 258 256 238
113 136 131 143 137 109 87 68 48 26 11 359 351 351 356 358 332 274 219 172 139 110 100 100 103 100 95 88 79 71 66 62 58 55 53 52 51 51 50 47 44 41 35 25 9 329 287 274 257
116 134 123 145 111 103 90 73 52 25 4 348 337 341 349 353 346 299 217 195 175 139 111 101 103 104 101 93 83 74 67 62 57 52 50 49 49 50 49 46 44 40 31 19 6 345 311 286 265
128 126 119 101 96 99 89 77 61 29 1 346 335 332 337 345 338 298 227 203 196 179 145 114 104 106 107 101 88 76 68 62 55 49 46 45 45 46 45 45 43 41 33 20 8 357 332 308 272
146 135 109 94 91 96 90 74 56 34 8 352 343 343 340 340 334 296 234 210 203 199 185 155 126 115 114 111 97 82 70 60 51 45 41 40 39 39 39 39 40 40 37 29 16 5 354 332 280
166 148 108 106 122 114 99 78 52 30 12 347 336 341 345 344 340 312 239 216 207 207 205 198 182 155 131 119 105 87 74 59 48 41 37 33 32 33 33 33 34 36 38 36 28 19 13 4 302
178 165 141 179 198 168 146 142 313 313 343 333 326 329 343 337 340 323 254 219 210 212 215 218 220 219 212 186 138 81 70 56 42 33 29 25 21 22 25 26 29 34 37 38 35 31 29 28 60
192 192 182 201 213 225 222 240 257 270 276 286 297 312 327 330 330 318 288 237 217 216 223 229 235 240 244 248 251 265 286 322 346 356 2 2 359 359 5 11 19 27 32 34 34 33 37 37 52
209 209 210 227 236 236 239 239 244 253 261 266 272 283 288 295 302 309 301 269 237 225 230 236 241 247 252 256 260 265 270 272 275 285 293 307 315 320 327 341 357 10 19 22 24 26 28 29 35
221 222 226 234 242 241 242 244 246 250 256 261 265 266 271 277 282 288 291 286 272 258 252 253 253 254 257 260 264 268 270 270 268 269 271 276 278 286 295 307 324 339 352 2 10 14 14 11 7
233 232 236 239 244 245 245 248 251 253 258 262 266 265 263 267 271 276 279 279 279 275 269 267 268 267 266 267 269 271 271 271 268 268 268 269 269 272 279 285 295 307 319 332 340 352 354 349 346
246 246 245 248 250 250 251 252 253 256 261 264 266 267 264 263 265 266 268 269 271 274 274 272 273 274 278 279 278 278 278 275 272 272 271 269 268 268 269 272 277 287 295 302 309 318 325 323 312
253 254 255 257 256 255 255 256 256 256 258 260 263 265 265 263 263 265 266 266 267 270 273 275 275 276 278 281 282 284 284 282 280 277 274 272 270 270 268 266 268 274 282 285 288 295 296 297 299
264 266 265 263 262 261 259 259 259 258 257 259 260 262 264 265 267 266 266 268 268 268 270 273 276 277 276 279 282 284 285 285 284 280 277 275 273 271 269 266 265 267 272 278 280 283 284 285 288
270 268 267 267 266 266 265 264 263 262 261 261 261 262 265 268 267 267 268 269 271 270 270 272 274 277 276 276 279 281 283 284 284 281 279 277 274 273 271 268 265 264 267 272 276 276 278 279 283
270 270 271 271 270 270 269 269 266 266 266 265 264 265 265 267 267 268 270 271 272 272 272 272 273 275 276 277 278 280 282 282 281 280 280 279 277 274 273 270 267 265 265 268 271 272 273 275 277
272 272 271 270 272 269 267 267 268 268 268 267 266 266 265 265 266 267 269 270 271 272 273 273 272 274 275 277 278 278 279 281 280 280 280 279 278 277 275 272 267 265 264 265 267 269 270 271 273
276 275 274 272 270 268 268 269 271 271 270 269 268 267 267 266 266 267 268 269 270 271 272 273 273 273 274 275 277 278 278 279 279 280 280 279 278 276 276 273 268 264 263 263 264 268 268 267 269
282 279 276 272 269 268 271 271 271 272 272 271 269 268 267 266 266 266 266 267 268 269 270 271 273 272 273 273 274 276 277 277 277 279 280 279 278 277 275 273 271 267 263 263 265 267 266 266 267
286 283 279 274 271 272 272 272 273 273 272 270 270 269 268 266 266 266 264 265 265 267 268 269 270 271 271 270 272 273 274 275 276 275 277 277 278 278 278 274 271 269 264 262 263 266 264 263 264
293 289 286 284 281 277 275 273 273 273 270 269 268 267 267 266 265 264 263 262 262 263 265 266 267 268 269 269 269 270 271 272 273 274 275 276 277 279 279 280 274 269 265 261 261 261 261 260 261
302 298 296 293 286 280 274 272 269 266 265 264 265 267 266 263 263 261 259 258 258 259 261 263 265 267 269 270 270 269 269 269 273 274 276 279 279 280 282 285 282 277 272 265 261 260 258 258 259
309 305 302 298 293 284 273 264 260 255 256 257 261 261 259 258 258 257 256 256 256 258 260 262 264 267 270 271 272 272 270 270 271 273 274 277 279 281 282 284 285 280 276 267 260 257 257 256 257
315 315 313 308 302 290 273 259 253 249 250 252 253 255 256 257 256 256 255 256 257 258 261 263 266 268 270 271 272 271 270 269 269 269 271 274 278 282 283 284 283 280 274 268 260 255 253 254 256
322 322 325 324 308 288 271 254 248 250 251 252 254 259 260 259 258 257 257 257 258 260 263 266 268 269 270 271 271 270 269 268 267 268 269 271 275 278 283 283 280 276 269 264 257 253 252 254 257
334 334 336 335 323 281 264 257 253 253 252 252 257 259 260 260 259 257 257 259 260 262 264 266 268 270 271 271 270 269 267 265 265 265 268 271 273 275 280 281 278 273 267 259 254 252 251 253 257
344 345 346 345 342 309 275 270 268 273 265 259 259 264 264 262 259 257 257 258 260 262 264 267 268 269 269 268 267 266 264 262 261 263 265 267 271 275 278 278 272 266 261 255 252 248 249 254 258
353 356 359 0 359 349 308 302 299 295 294 283 272 268 264 260 257 257 257 258 260 263 265 266 267 268 267 266 265 264 261 259 259 262 264 266 268 272 272 271 267 262 255 251 247 244 250 256 260
1 4 8 10 8 4 347 333 332 325 314 304 284 267 257 254 253 254 259 261 262 264 265 266 267 266 264 263 261 260 258 258 258 259 261 262 263 266 266 265 258 254 250 247 244 246 252 258 262
9 11 15 19 17 13 7 4 356 354 348 343 329 293 249 242 246 255 262 262 265 267 265 265 265 264 262 259 257 256 255 256 259 260 259 259 258 259 257 254 249 245 244 244 249 254 258 259 261
Height
5905 5905 5906 5907 5908 5907 5907 5907 5907 5907 5907 5907 5906 5906 5906 5907 5908 5910 5909 5908 5909 5909 5908 5908 5908 5908 5908 5908 5907 5907 5906 5905 5904 5903 5901 5900 5899 5898 5898 5897 5897 5897 5898 5898 5898 5898 5899 5900 5900
5906 5906 5907 5908 5907 5907 5908 5908 5908 5908 5908 5907 5907 5907 5907 5907 5907 5908 5908 5909 5909 5909 5909 5909 5909 5909 5909 5909 5909 5908 5907 5907 5906 5905 5903 5902 5901 5900 5899 5898 5898 5898 5898 5898 5899 5899 5899 5900 5900
5907 5907 5908 5908 5907 5908 5909 5909 5909 5909 5908 5908 5908 5908 5908 5908 5908 5908 5908 5909 5910 5910 5910 5910 5910 5910 5910 5910 5910 5909 5909 5908 5907 5907 5905 5904 5903 5902 5901 5900 5899 5899 5899 5899 5899 5899 5899 5900 5900
5908 5909 5909 5909 5908 5909 5909 5909 5909 5909 5909 5909 5909 5909 5908 5909 5908 5908 5908 5909 5909 5910 5910 5910 5910 5911 5910 5910 5910 5910 5910 5909 5909 5908 5907 5906 5905 5904 5902 5901 5900 5899 5899 5899 5899 5899 5899 5899 5899
5909 5910 5910 5909 5909 5910 5910 5910 5910 5910 5909 5909 5909 5909 5909 5909 5908 5908 5908 5909 5909 5910 5910 5911 5911 5911 5911 5911 5911 5911 5910 5910 5910 5909 5909 5908 5907 5906 5904 5903 5902 5901 5900 5899 5899 5899 5898 5898 5898
5910 5910 5910 5910 5911 5911 5911 5911 5911 5910 5910 5909 5909 5909 5909 5909 5908 5908 5908 5908 5909 5910 5910 5910 5911 5911 5911 5911 5911 5911 5911 5911 5911 5910 5910 5909 5909 5907 5906 5905 5903 5902 5901 5900 5900 5899 5898 5898 5897
5911 5911 5910 5910 5911 5912 5912 5912 5912 5911 5911 5910 5909 5909 5909 5909 5909 5908 5908 5908 5909 5909 5910 5910 5910 5911 5911 5911 5911 5911 5911 5911 5911 5911 5910 5910 5910 5909 5907 5906 5905 5904 5902 5901 5900 5899 5899 5898 5897
5909 5911 5910 5911 5911 5912 5912 5912 5912 5912 5911 5911 5910 5910 5910 5909 5909 5909 5908 5908 5908 5909 5909 5909 5910 5910 5911 5911 5911 5911 5911 5911 5911 5911 5911 5910 5910 5909 5908 5907 5906 5905 5904 5902 5901 5900 5899 5898 5898
5908 5911 5910 5910 5910 5911 5911 5911 5911 5911 5910 5910 5909 5910 5910 5909 5909 5909 5909 5908 5908 5908 5908 5909 5909 5909 5910 5910 5910 5910 5910 5910 5911 5910 5910 5910 5910 5909 5909 5908 5907 5906 5905 5903 5902 5901 5900 5899 5898
5907 5908 5908 5909 5909 5909 5909 5909 5909 5909 5909 5909 5908 5909 5909 5908 5909 5908 5908 5908 5908 5908 5908 5908 5908 5908 5909 5909 5909 5909 5909 5909 5909 5909 5909 5909 5909 5909 5908 5908 5907 5906 5905 5904 5903 5902 5901 5900 5899
5904 5905 5906 5906 5906 5907 5907 5907 5906 5906 5907 5907 5907 5907 5907 5907 5907 5907 5907 5907 5907 5907 5907 5907 5907 5907 5907 5907 5907 5907 5907 5907 5907 5907 5908 5907 5907 5907 5907 5907 5906 5906 5905 5904 5903 5902 5901 5901 5900
5902 5902 5903 5903 5904 5904 5904 5904 5904 5904 5905 5905 5904 5904 5904 5904 5904 5905 5905 5905 5905 5905 5905 5905 5905 5905 5905 5905 5905 5905 5905 5905 5905 5905 5905 5905 5905 5906 5906 5905 5905 5905 5904 5904 5903 5902 5902 5901 5900
5898 5899 5899 5900 5901 5901 5901 5901 5901 5902 5902 5902 5902 5901 5900 5901 5901 5901 5901 5901 5902 5902 5902 5902 5903 5903 5903 5903 5902 5903 5903 5903 5903 5902 5902 5902 5902 5903 5903 5903 5903 5903 5903 5902 5902 5902 5901 5901 5900
5896 5896 5897 5897 5897 5897 5897 5896 5897 5897 5898 5898 5898 5897 5897 5897 5898 5897 5897 5898 5898 5899 5899 5899 5899 5900 5900 5900 5900 5900 5900 5900 5900 5900 5899 5899 5899 5899 5900 5900 5900 5901 5901 5900 5900 5900 5900 5900 5899
5892 5893 5893 5892 5892 5891 5891 5891 5891 5892 5893 5893 5893 5893 5893 5893 5893 5893 5893 5894 5894 5895 5895 5896 5896 5896 5896 5896 5896 5896 5896 5896 5896 5896 5896 5896 5896 5896 5896 5896 5897 5897 5897 5898 5898 5898 5898 5898 5897
5888 5888 5888 5888 5886 5886 5887 5884 5885 5886 5886 5887 5887 5888 5889 5888 5888 5888 5889 5889 5890 5890 5890 5891 5892 5892 5892 5892 5892 5892 5892 5892 5892 5892 5892 5892 5891 5892 5892 5892 5893 5893 5894 5894 5894 5895 5895 5895 5895
5883 5882 5882 5881 5880 5880 5878 5876 5876 5878 5879 5879 5880 5881 5881 5882 5882 5883 5884 5884 5885 5885 5885 5886 5887 5887 5887 5887 5887 5888 5888 5888 5888 5888 5887 5887 5887 5887 5888 5888 5889 5889 5889 5890 5890 5891 5891 5891 5891
5877 5876 5875 5874 5872 5871 5870 5869 5868 5869 5869 5870 5872 5872 5872 5873 5875 5876 5878 5878 5878 5879 5879 5880 5881 5881 5882 5882 5882 5882 5882 5882 5882 5883 5882 5882 5882 5882 5883 5883 5883 5884 5884 5885 5885 5886 5886 5887 5887
5870 5868 5868 5867 5864 5863 5862 5860 5860 5859 5859 5860 5862 5863 5863 5864 5865 5868 5870 5870 5871 5871 5872 5873 5873 5875 5875 5876 5876 5876 5876 5876 5877 5877 5877 5876 5876 5877 5878 5878 5878 5878 5879 5879 5880 5880 5881 5881 5882
5863 5860 5858 5857 5855 5853 5852 5851 5851 5850 5849 5850 5851 5852 5852 5854 5856 5857 5860 5861 5862 5863 5864 5865 5865 5866 5867 5868 5869 5869 5868 5868 5869 5870 5871 5871 5870 5870 5871 5872 5871 5872 5872 5873 5873 5874 5874 5875 5876
5855 5851 5848 5846 5844 5843 5841 5841 5840 5839 5838 5838 5839 5840 5841 5844 5845 5847 5849 5851 5853 5854 5855 5856 5857 5857 5858 5859 5860 5860 5859 5859 5860 5862 5863 5864 5864 5864 5864 5864 5864 5864 5865 5865 5866 5868 5868 5869 5870
5847 5842 5839 5835 5832 5831 5831 5829 5831 5828 5826 5826 5827 5829 5831 5833 5835 5837 5839 5842 5843 5845 5846 5847 5848 5848 5849 5849 5850 5851 5850 5849 5851 5853 5854 5855 5856 5856 5856 5856 5856 5856 5857 5858 5859 5860 5861 5862 5863
5839 5834 5829 5824 5820 5817 5818 5818 5820 5818 5817 5818 5818 5819 5820 5823 5826 5828 5830 5833 5834 5836 5837 5838 5839 5840 5840 5840 5840 5841 5841 5841 5843 5844 5845 5846 5847 5847 5847 5848 5848 5849 5849 5850 5851 5852 5854 5855 5856
5832 5827 5821 5814 5809 5807 5809 5810 5810 5808 5807 5808 5809 5809 5810 5813 5816 5819 5821 5824 5826 5827 5829 5830 5831 5831 5831 5832 5832 5832 5833 5833 5835 5835 5836 5837 5837 5838 5839 5839 5840 5840 5841 5842 5843 5844 5846 5848 5849
5826 5820 5814 5808 5804 5802 5802 5802 5801 5800 5800 5801 5800 5801 5803 5805 5808 5810 5813 5815 5817 5819 5820 5821 5821 5822 5822 5822 5823 5823 5824 5824 5825 5826 5826 5828 5829 5830 5830 5831 5831 5832 5833 5834 5835 5836 5838 5840 5841
5821 5815 5810 5804 5800 5798 5797 5795 5795 5793 5793 5793 5793 5793 5795 5797 5799 5801 5803 5805 5807 5809 5810 5811 5811 5812 5812 5812 5813 5813 5814 5815 5816 5817 5818 5819 5820 5821 5821 5822 5823 5823 5824 5825 5826 5828 5830 5832 5833
5818 5812 5807 5802 5798 5796 5794 5793 5790 5789 5787 5786 5787 5787 5788 5789 5790 5792 5794 5796 5798 5799 5800 5801 5801 5801 5802 5802 5803 5803 5804 5805 5807 5808 5809 5810 5811 5812 5813 5813 5813 5814 5815 5816 5818 5819 5821 5824 5826
5817 5811 5807 5802 5798 5796 5794 5791 5789 5786 5784 5782 5782 5782 5783 5783 5784 5785 5787 5788 5790 5791 5791 5792 5792 5792 5793 5793 5794 5794 5795 5797 5798 5800 5801 5802 5803 5804 5804 5805 5805 5806 5807 5808 5809 5811 5814 5816 5818
5817 5812 5807 5803 5799 5797 5794 5794 5788 5785 5783 5781 5779 5779 5779 5779 5780 5781 5782 5783 5784 5784 5784 5785 5785 5785 5785 5786 5787 5787 5788 5789 5791 5792 5793 5795 5796 5796 5797 5798 5798 5799 5800 5801 5803 5806 5808 5810 5811
5818 5813 5809 5806 5802 5798 5796 5797 5790 5787 5784 5781 5779 5778 5778 5778 5778 5779 5780 5780 5780 5780 5780 5781 5781 5781 5781 5781 5782 5782 5783 5784 5785 5786 5787 5788 5789 5790 5791 5791 5793 5794 5795 5797 5799 5801 5802 5804 5805